Location: Melbourne
(37.8170°S, 144.9670°E)
Time: 15:16:28
(UTC+11:00)

ISS - All Passes

Search period start: 24 February 2018 00:00
Search period end: 06 March 2018 00:00
Orbit: 402 x 407 km, 51.6° (Epoch: 24 February)

Date Brightness Start Highest point End Pass type
(mag) Time Alt. Az. Time Alt. Az. Time Alt. Az.
24 Feb - 02:09:06 10° SSW 02:11:35 19° SSE 02:14:03 10° ESE night (unlit)
24 Feb - 03:45:01 10° WSW 03:48:20 62° NW 03:51:37 10° NE night (unlit)
24 Feb - 20:23:20 10° NW 20:26:39 73° SW 20:30:00 10° SE daylight
24 Feb - 22:01:45 10° SW 22:03:38 14° SSW 22:05:32 10° SSE visible
25 Feb - 01:17:22 10° SSW 01:19:07 13° SSE 01:20:52 10° SE night (unlit)
25 Feb - 02:52:49 10° SW 02:56:09 64° SE 02:59:28 10° ENE night (unlit)
25 Feb - 04:31:00 10° WNW 04:32:13 12° NW 04:33:26 10° NNW night (unlit)
25 Feb - 19:31:15 10° NW 19:34:29 53° NE 19:37:45 10° ESE daylight
25 Feb - 21:08:37 10° WSW 21:11:11 20° SSW 21:13:45 10° SSE visible
26 Feb - 00:26:03 10° S 00:26:35 10° SSE 00:27:06 10° SSE night (unlit)
26 Feb - 02:00:44 10° SW 02:03:52 34° SSE 02:06:57 10° E night (unlit)
26 Feb - 03:37:31 10° WSW 03:40:13 23° NW 03:42:54 10° N night (unlit)
26 Feb - 18:39:35 10° N 18:42:22 26° NE 18:45:12 10° ESE daylight
26 Feb - 20:15:45 10° W 20:18:47 31° SSW 20:21:50 10° SSE daylight
27 Feb - 01:08:48 10° SSW 01:11:29 22° SSE 01:14:09 10° E night (unlit)
27 Feb - 02:44:54 10° WSW 02:48:08 46° NW 02:51:20 10° NNE night (unlit)
27 Feb - 17:48:45 10° NNE 17:50:21 13° NE 17:51:58 10° E daylight
27 Feb - 19:23:11 10° WNW 19:26:28 57° SW 19:29:47 10° SE daylight
27 Feb - 21:01:57 10° SW 21:03:33 13° SSW 21:05:08 10° S visible
28 Feb - 00:16:58 10° SSW 00:19:00 15° SSE 00:21:02 10° ESE night (unlit)
28 Feb - 01:52:34 10° SW 01:55:56 83° SE 01:59:16 10° NE night (unlit)
28 Feb - 18:30:56 10° NW 18:34:13 70° NE 18:37:33 10° SE daylight
28 Feb - 20:08:40 10° WSW 20:11:01 18° SSW 20:13:23 10° SSE daylight
28 Feb - 23:25:21 10° S 23:26:27 11° SSE 23:27:32 10° SE visible
01 Mar - 01:00:26 10° SW 01:03:39 42° SE 01:06:51 10° ENE night (unlit)
01 Mar - 02:37:32 10° W 02:39:54 18° NW 02:42:15 10° N night (unlit)
01 Mar - 17:39:03 10° NNW 17:42:03 33° NE 17:45:05 10° ESE daylight
01 Mar - 19:15:41 10° W 19:18:33 26° SSW 19:21:27 10° SSE daylight
02 Mar - 00:08:24 10° SSW 00:11:16 25° SSE 00:14:06 10° E night (unlit)
02 Mar - 01:44:42 10° WSW 01:47:48 36° NW 01:50:52 10° NNE night (unlit)
02 Mar - 16:47:46 10° N 16:49:57 17° NE 16:52:09 10° E daylight
02 Mar - 18:22:57 10° WNW 18:26:10 45° SW 18:29:24 10° SE daylight
02 Mar - 20:02:07 10° SW 20:03:20 11° SSW 20:04:33 10° S daylight
02 Mar - 23:16:29 10° SSW 23:18:47 17° SSE 23:21:03 10° ESE visible
03 Mar - 00:52:15 10° SW 00:55:36 77° NW 00:58:55 10° NE night (unlit)
03 Mar - 17:30:32 10° NW 17:33:51 89° S 17:37:12 10° SE daylight
03 Mar - 19:08:39 10° WSW 19:10:45 15° SSW 19:12:51 10° SSE daylight
03 Mar - 22:24:43 10° S 22:26:12 12° SSE 22:27:41 10° SE visible
04 Mar - 00:00:01 10° SW 00:03:18 53° SE 00:06:34 10° ENE night (unlit)
04 Mar - 01:37:36 10° W 01:39:27 14° NW 01:41:18 10° NNW night (unlit)
04 Mar - 16:38:28 10° NNW 16:41:37 42° NE 16:44:48 10° ESE daylight
04 Mar - 18:15:31 10° W 18:18:13 22° SSW 18:20:57 10° SSE daylight
04 Mar - 23:07:54 10° SSW 23:10:55 29° SSE 23:13:54 10° E visible
05 Mar - 00:44:26 10° WSW 00:47:20 28° NW 00:50:14 10° NNE night (unlit)
05 Mar - 15:46:53 10° N 15:49:27 21° NE 15:52:02 10° E daylight
05 Mar - 17:22:39 10° WNW 17:25:46 36° SSW 17:28:54 10° SE daylight
05 Mar - 19:02:19 10° SSW 19:03:01 10° SSW 19:03:44 10° S daylight
05 Mar - 22:15:54 10° SSW 22:18:25 19° SSE 22:20:54 10° ESE visible
05 Mar - 23:51:50 10° WSW 23:55:08 58° NW 23:58:24 10° NE night (unlit)
